Weather History for Torrington, WY

Change the Weather History Date:

Friday, January 31, 2014

  Actual Average Record
Temperature  
Mean Temperature 24 °F 29 °F  
Max Temperature 32 °F 43 °F 64 °F (2003)
Min Temperature 16 °F 15 °F -11 °F (2011)
Degree Days  
Heating Degree Days 41 36  
Month to date heating degree days 995 1139  
Since 1 July heating degree days 3761 3895  
Cooling Degree Days 0 0  
Month to date cooling degree days 0 0  
Year to date cooling degree days 0 0  
Moisture  
Dew Point 17 °F    
Average Humidity 78    
Maximum Humidity 92    
Minimum Humidity 63    
Precipitation  
Precipitation 0.01 in 0.01 in 0.05 in (2011)
Month to date precipitation 0.18 0.26  
Year to date precipitation 0.18 0.26  
Sea Level Pressure  
Sea Level Pressure 29.87 in    
Wind  
Wind Speed 7 mph (ESE)    
Max Wind Speed 17 mph    
Max Gust Speed 21 mph    
Visibility 9 miles    
Events Snow    
T = Trace of Precipitation, MM = Missing Value Source: NWS Daily Summary

Daily Weather History Graph

Daily Weather History Graph

Search for Another Location

Airport:

Trip Planner

Search our weather history database for the weather conditions in past years. The results will help you decide how hot, cold, wet, or windy it might be!

Date:

Astronomy

Jan. 31, 2014 Rise Set
Actual Time 7:10 AM MST 5:10 PM MST
Civil Twilight 6:40 AM MST 5:39 PM MST
Nautical Twilight 6:07 AM MST 6:13 PM MST
Astronomical Twilight 5:34 AM MST 6:46 PM MST
Moon 7:20 AM MST (1/31) 6:39 PM MST (1/31)
Length of Visible Light 10h 59m
Length of Day
9h 59m
New Moon, 1% of the Moon is Illuminated
Jan 31
New Moon
Feb 6
First Quarter
Feb 14
Full
Feb 22
Last Quarter
Mar 1
New

Hourly Weather History & Observations

Time (MST) Temp. Windchill Dew Point Humidity Pressure Visibility Wind Dir Wind Speed Gust Speed Precip Events Conditions
12:18 AM 18.0 °F 8.7 °F 15.1 °F 88% 29.83 in 3.0 mi ESE 6.9 mph - 0.00 in Snow Light Snow
12:26 AM 18.0 °F 8.7 °F 15.1 °F 88% 29.83 in 2.5 mi East 6.9 mph - 0.00 in Snow Light Snow
12:38 AM 18.0 °F 9.8 °F 15.1 °F 88% 29.82 in 1.5 mi East 5.8 mph - 0.00 in Snow Light Snow
12:53 AM 17.1 °F 8.7 °F 15.1 °F 92% 29.94 in 2.0 mi East 5.8 mph - 0.00 in Snow Light Snow
1:26 AM 17.1 °F 7.6 °F 14.0 °F 88% 29.82 in 3.0 mi ESE 6.9 mph - 0.01 in Snow Light Snow
1:40 AM 17.1 °F 7.6 °F 14.0 °F 88% 29.82 in 9.0 mi ESE 6.9 mph - 0.01 in   Scattered Clouds
1:53 AM 16.0 °F 5.3 °F 14.0 °F 92% 29.95 in 10.0 mi ESE 8.1 mph - 0.01 in   Scattered Clouds
2:53 AM 17.1 °F 10.0 °F 14.0 °F 88% 29.96 in 10.0 mi ESE 4.6 mph - N/A   Overcast
3:53 AM 17.1 °F 7.6 °F 14.0 °F 88% 29.97 in 10.0 mi SE 6.9 mph - N/A   Overcast
4:53 AM 17.1 °F 8.7 °F 14.0 °F 88% 29.96 in 10.0 mi SE 5.8 mph - N/A   Overcast
5:53 AM 17.1 °F 6.6 °F 15.1 °F 92% 29.96 in 10.0 mi SE 8.1 mph - N/A   Overcast
6:53 AM 17.1 °F 6.6 °F 15.1 °F 92% 29.96 in 10.0 mi SE 8.1 mph - N/A   Overcast
7:53 AM 17.1 °F 5.8 °F 14.0 °F 88% 29.94 in 10.0 mi ESE 9.2 mph - N/A   Partly Cloudy
8:53 AM 19.9 °F 7.3 °F 15.1 °F 81% 29.92 in 10.0 mi SE 12.7 mph - N/A   Clear
9:53 AM 24.1 °F 12.0 °F 16.0 °F 71% 29.90 in 10.0 mi South 13.8 mph - N/A   Clear
10:53 AM 27.0 °F 15.2 °F 19.0 °F 72% 29.88 in 10.0 mi South 15.0 mph - N/A   Clear
11:53 AM 30.0 °F 21.7 °F 19.9 °F 66% 29.83 in 10.0 mi South 9.2 mph - N/A   Clear
12:53 PM 28.9 °F 18.2 °F 19.9 °F 69% 29.79 in 10.0 mi SSE 13.8 mph - N/A   Clear
1:53 PM 32.0 °F 26.4 °F 21.9 °F 66% 29.77 in 10.0 mi SE 5.8 mph - N/A   Clear
2:53 PM 30.9 °F 22.8 °F 23.0 °F 72% 29.77 in 10.0 mi SE 9.2 mph - N/A   Clear
3:53 PM 30.0 °F 24.1 °F 21.9 °F 72% 29.77 in 10.0 mi ESE 5.8 mph - N/A   Clear
4:53 PM 28.0 °F 21.7 °F 21.9 °F 78% 29.80 in 10.0 mi East 5.8 mph - N/A   Clear
5:53 PM 26.1 °F - 21.0 °F 81% 29.83 in 10.0 mi Calm Calm - N/A   Mostly Cloudy
6:53 PM 25.0 °F 20.7 °F 21.0 °F 85% 29.86 in 10.0 mi NNE 3.5 mph - N/A   Clear
7:53 PM 25.0 °F - 19.9 °F 81% 29.87 in 10.0 mi Calm Calm - N/A   Clear
8:53 PM 24.1 °F 18.2 °F 19.9 °F 84% 29.87 in 10.0 mi WNW 4.6 mph - N/A   Clear
9:53 PM 21.9 °F 15.7 °F 19.0 °F 89% 29.88 in 10.0 mi WNW 4.6 mph - N/A   Clear
10:53 PM 21.0 °F 16.2 °F 19.0 °F 92% 29.88 in 10.0 mi NNW 3.5 mph - N/A   Mostly Cloudy
11:53 PM 21.0 °F 16.2 °F 18.0 °F 88% 29.88 in 10.0 mi NW 3.5 mph - N/A   Scattered Clouds